Time,TemperatureF,DewpointF,PressureIn,WindDirection,WindDirectionDegrees,WindSpeedMPH,WindSpeedGustMPH,Humidity,HourlyPrecipIn,Conditions,Clouds,dailyrainin,SoftwareType,DateUTC
2013-06-30 00:02:00,69.0,-99.9,-100.00,North,-999,-999.0,-999.0,-999,0.00,,,0.00,,2013-06-30 06:02:00,
2013-06-30 00:12:00,69.0,-99.9,-100.00,North,-999,-999.0,-999.0,-999,0.00,,,0.00,,2013-06-30 06:12:00,
2013-06-30 00:53:00,68.0,-99.9,-100.00,North,-999,-999.0,-999.0,-999,0.00,,,0.00,,2013-06-30 06:53:00,
2013-06-30 01:03:00,68.0,-99.9,-100.00,North,-999,-999.0,-999.0,-999,0.00,,,0.00,,2013-06-30 07:03:00,
2013-06-30 01:12:00,68.0,-99.9,-100.00,North,-999,-999.0,-999.0,-999,0.00,,,0.00,,2013-06-30 07:12:00,
2013-06-30 01:53:00,62.0,-99.9,-100.00,North,-999,-999.0,-999.0,-999,-99.99,,,0.20,,2013-06-30 07:53:00,
2013-06-30 02:02:00,62.0,-99.9,-100.00,North,-999,-999.0,-999.0,-999,-99.99,,,0.20,,2013-06-30 08:02:00,
2013-06-30 02:12:00,62.0,-99.9,-100.00,North,-999,-999.0,-999.0,-999,-99.99,,,0.20,,2013-06-30 08:12:00,
2013-06-30 02:53:00,61.0,-99.9,-100.00,North,-999,-999.0,-999.0,-999,0.00,,,0.20,,2013-06-30 08:53:00,
2013-06-30 03:02:00,61.0,-99.9,-100.00,North,-999,-999.0,-999.0,-999,0.00,,,0.20,,2013-06-30 09:02:00,
2013-06-30 03:12:00,61.0,-99.9,-100.00,North,-999,-999.0,-999.0,-999,0.00,,,0.20,,2013-06-30 09:12:00,
2013-06-30 03:53:00,61.0,-99.9,-100.00,North,-999,-999.0,-999.0,-999,0.00,,,0.20,,2013-06-30 09:53:00,
2013-06-30 04:02:00,61.0,-99.9,-100.00,North,-999,-999.0,-999.0,-999,0.00,,,0.20,,2013-06-30 10:02:00,
2013-06-30 04:12:00,61.0,-99.9,-100.00,North,-999,-999.0,-999.0,-999,0.00,,,0.20,,2013-06-30 10:12:00,
2013-06-30 04:53:00,60.0,-99.9,-100.00,North,-999,-999.0,-999.0,-999,0.00,,,-99.99,,2013-06-30 10:53:00,
2013-06-30 05:02:00,60.0,-99.9,-100.00,North,-999,-999.0,-999.0,-999,0.00,,,-99.99,,2013-06-30 11:02:00,
2013-06-30 05:11:00,60.0,-99.9,-100.00,North,-999,-999.0,-999.0,-999,0.00,,,-99.99,,2013-06-30 11:11:00,
2013-06-30 05:53:00,58.0,-99.9,-100.00,North,-999,-999.0,-999.0,-999,0.00,,,0.20,,2013-06-30 11:53:00,
2013-06-30 06:02:00,58.0,-99.9,-100.00,North,-999,-999.0,-999.0,-999,0.00,,,0.20,,2013-06-30 12:02:00,
2013-06-30 06:12:00,58.0,-99.9,-100.00,North,-999,-999.0,-999.0,-999,0.00,,,0.20,,2013-06-30 12:12:00,
2013-06-30 06:52:00,57.0,-99.9,-100.00,North,-999,-999.0,-999.0,-999,0.00,,,0.20,,2013-06-30 12:52:00,
2013-06-30 07:02:00,57.0,-99.9,-100.00,North,-999,-999.0,-999.0,-999,0.00,,,0.20,,2013-06-30 13:02:00,
2013-06-30 07:12:00,57.0,-99.9,-100.00,North,-999,-999.0,-999.0,-999,0.00,,,0.20,,2013-06-30 13:12:00,
2013-06-30 07:53:00,60.0,-99.9,-100.00,North,-999,-999.0,-999.0,-999,0.00,,,0.20,,2013-06-30 13:53:00,
2013-06-30 08:02:00,60.0,-99.9,-100.00,North,-999,-999.0,-999.0,-999,0.00,,,0.20,,2013-06-30 14:02:00,
2013-06-30 08:12:00,60.0,-99.9,-100.00,North,-999,-999.0,-999.0,-999,0.00,,,0.20,,2013-06-30 14:12:00,
2013-06-30 08:52:00,64.0,-99.9,-100.00,North,-999,-999.0,-999.0,-999,0.00,,,0.20,,2013-06-30 14:52:00,
2013-06-30 09:02:00,64.0,-99.9,-100.00,North,-999,-999.0,-999.0,-999,0.00,,,0.20,,2013-06-30 15:02:00,
2013-06-30 09:12:00,64.0,-99.9,-100.00,North,-999,-999.0,-999.0,-999,0.00,,,0.20,,2013-06-30 15:12:00,
2013-06-30 09:53:00,67.0,-99.9,-100.00,North,-999,-999.0,-999.0,-999,0.00,,,0.20,,2013-06-30 15:53:00,
2013-06-30 10:02:00,67.0,-99.9,-100.00,North,-999,-999.0,-999.0,-999,0.00,,,0.20,,2013-06-30 16:02:00,
2013-06-30 10:11:00,67.0,-99.9,-100.00,North,-999,-999.0,-999.0,-999,0.00,,,0.20,,2013-06-30 16:11:00,
2013-06-30 10:53:00,70.0,-99.9,-100.00,North,-999,-999.0,-999.0,-999,0.00,,,0.20,,2013-06-30 16:53:00,
2013-06-30 11:02:00,70.0,-99.9,-100.00,North,-999,-999.0,-999.0,-999,0.00,,,0.20,,2013-06-30 17:02:00,
2013-06-30 11:12:00,70.0,-99.9,-100.00,North,-999,-999.0,-999.0,-999,0.00,,,0.20,,2013-06-30 17:12:00,
2013-06-30 11:53:00,72.0,-99.9,-100.00,North,-999,-999.0,-999.0,-999,0.00,,,0.20,,2013-06-30 17:53:00,
2013-06-30 12:02:00,72.0,-99.9,-100.00,North,-999,-999.0,-999.0,-999,0.00,,,0.20,,2013-06-30 18:02:00,
2013-06-30 12:12:00,72.0,-99.9,-100.00,North,-999,-999.0,-999.0,-999,0.00,,,0.20,,2013-06-30 18:12:00,
2013-06-30 12:53:00,76.0,-99.9,-100.00,North,-999,-999.0,-999.0,-999,0.00,,,0.20,,2013-06-30 18:53:00,
2013-06-30 13:02:00,76.0,-99.9,-100.00,North,-999,-999.0,-999.0,-999,0.00,,,0.20,,2013-06-30 19:02:00,
2013-06-30 13:12:00,76.0,-99.9,-100.00,North,-999,-999.0,-999.0,-999,0.00,,,0.20,,2013-06-30 19:12:00,
2013-06-30 13:53:00,77.0,-99.9,-100.00,North,-999,-999.0,-999.0,-999,0.00,,,0.20,,2013-06-30 19:53:00,
2013-06-30 14:02:00,77.0,-99.9,-100.00,North,-999,-999.0,-999.0,-999,0.00,,,0.20,,2013-06-30 20:02:00,
2013-06-30 14:12:00,77.0,-99.9,-100.00,North,-999,-999.0,-999.0,-999,0.00,,,0.20,,2013-06-30 20:12:00,
2013-06-30 14:52:00,77.0,-99.9,-100.00,North,-999,-999.0,-999.0,-999,0.00,,,0.20,,2013-06-30 20:52:00,
2013-06-30 15:02:00,77.0,-99.9,-100.00,North,-999,-999.0,-999.0,-999,0.00,,,0.20,,2013-06-30 21:02:00,
2013-06-30 15:11:00,77.0,-99.9,-100.00,North,-999,-999.0,-999.0,-999,0.00,,,0.20,,2013-06-30 21:11:00,
2013-06-30 15:53:00,75.0,-99.9,-100.00,North,-999,-999.0,-999.0,-999,0.00,,,0.20,,2013-06-30 21:53:00,
2013-06-30 16:11:00,75.0,-99.9,-100.00,North,-999,-999.0,-999.0,-999,0.00,,,0.20,,2013-06-30 22:11:00,
2013-06-30 16:53:00,74.0,-99.9,-100.00,North,-999,-999.0,-999.0,-999,0.00,,,0.20,,2013-06-30 22:53:00,
2013-06-30 17:02:00,74.0,-99.9,-100.00,North,-999,-999.0,-999.0,-999,0.00,,,0.20,,2013-06-30 23:02:00,
2013-06-30 17:11:00,74.0,-99.9,-100.00,North,-999,-999.0,-999.0,-999,0.00,,,0.20,,2013-06-30 23:11:00,
2013-06-30 17:53:00,66.0,-99.9,-100.00,North,-999,-999.0,-999.0,-999,0.35,,,0.55,,2013-06-30 23:53:00,
2013-06-30 18:02:00,66.0,-99.9,-100.00,North,-999,-999.0,-999.0,-999,0.35,,,0.55,,2013-07-01 00:02:00,
2013-06-30 18:12:00,66.0,-99.9,-100.00,North,-999,-999.0,-999.0,-999,0.35,,,0.55,,2013-07-01 00:12:00,
2013-06-30 19:53:00,63.0,-99.9,-100.00,North,-999,-999.0,-999.0,-999,-99.99,,,0.84,,2013-07-01 01:53:00,
2013-06-30 20:02:00,63.0,-99.9,-100.00,North,-999,-999.0,-999.0,-999,-99.99,,,0.84,,2013-07-01 02:02:00,
2013-06-30 20:12:00,63.0,-99.9,-100.00,North,-999,-999.0,-999.0,-999,-99.99,,,0.84,,2013-07-01 02:12:00,
2013-06-30 20:54:00,63.0,-99.9,-100.00,North,-999,-999.0,-999.0,-999,0.00,,,0.84,,2013-07-01 02:54:00,
2013-06-30 21:02:00,63.0,-99.9,-100.00,North,-999,-999.0,-999.0,-999,0.00,,,0.84,,2013-07-01 03:02:00,
2013-06-30 21:12:00,63.0,-99.9,-100.00,North,-999,-999.0,-999.0,-999,0.00,,,0.84,,2013-07-01 03:12:00,
2013-06-30 21:53:00,61.0,-99.9,-100.00,North,-999,-999.0,-999.0,-999,0.00,,,0.84,,2013-07-01 03:53:00,
2013-06-30 22:02:00,61.0,-99.9,-100.00,North,-999,-999.0,-999.0,-999,0.00,,,0.84,,2013-07-01 04:02:00,
2013-06-30 22:11:00,61.0,-99.9,-100.00,North,-999,-999.0,-999.0,-999,0.00,,,0.84,,2013-07-01 04:11:00,
2013-06-30 22:53:00,60.0,-99.9,-100.00,North,-999,-999.0,-999.0,-999,0.00,,,0.84,,2013-07-01 04:53:00,
2013-06-30 23:02:00,60.0,-99.9,-100.00,North,-999,-999.0,-999.0,-999,0.00,,,0.84,,2013-07-01 05:02:00,
2013-06-30 23:11:00,60.0,-99.9,-100.00,North,-999,-999.0,-999.0,-999,0.00,,,0.84,,2013-07-01 05:11:00,
2013-06-30 23:52:00,58.0,-99.9,-100.00,North,-999,-999.0,-999.0,-999,0.00,,,0.84,,2013-07-01 05:52:00,